Regional Weather Roundup
Issued by NWS

Home | Current Version | Previous Version | Text Only | Print | Product List | Glossary Off
Versions: 1 2 3 4 5 6 7 8 9 10 11 12 13 14 15 16 17 18 19 20 21 22 23 24 25 26 27 28 29 30 31 32 33 34 35 36 37 38 39 40 41 42 43 44 45 46 47 48 49 50

000
ASUS43 KLOT 030808
RWRIL

ILLINOIS REGIONAL WEATHER ROUNDUP
NATIONAL WEATHER SERVICE CHICAGO/ROMEOVILLE IL
300 AM CDT WED JUN 03 2015

NOTE: "FAIR" INDICATES FEW OR NO CLOUDS BELOW 12,000 FEET WITH NO
SIGNIFICANT WEATHER AND/OR OBSTRUCTIONS TO VISIBILITY.

* THESE STATIONS ARE NOT UNDER NWS QUALITY CONTROL. THEY ALSO MAY NOT
  REPORT WEATHER SUCH AS PRECIPITATION OR FOG.

ILZ001-002-007-009-015-016-024-030900-
NORTHWEST ILLINOIS

CITY           SKY/WX    TMP DP  RH WIND       PRES   REMARKS
MOLINE         PTCLDY    57  50  77 CALM      30.02S
STERLING*      MOCLDY    59  50  72 SE6       30.05S
SAVANNA*       MOCLDY    59  48  67 S3        30.03S
$$

ILZ003-004-008-010-011-017-018-030900-
NORTH CENTRAL ILLINOIS

CITY           SKY/WX    TMP DP  RH WIND       PRES   REMARKS
ROCKFORD       MOCLDY    56  48  74 SE8       30.07F
FREEPORT*      MOCLDY    54  48  81 SE6       30.07S
ROCHELLE*      PTCLDY    55  50  83 SE6       30.06F
DE KALB*       PTCLDY    50  46  85 SE7       30.07F
PERU*          PTCLDY    59  53  80 SE9       30.06F
$$

ILZ005-006-012>014-019>023-030900-
NORTHEAST ILLINOIS

CITY           SKY/WX    TMP DP  RH WIND       PRES   REMARKS
CHICAGO-OHARE  MOCLDY    51  44  77 CALM      30.07F
CHICAGO-MIDWAY MOCLDY    57  49  74 E3        30.08S
AURORA         PTCLDY    53  46  77 E5        30.07F
LANSING*       CLEAR     49  46  89 CALM      30.09S
JOLIET*        CLEAR     56  52  87 CALM      30.07F
WAUKEGAN       PTCLDY    46  44  93 SE3       30.08F
DUPAGE AIRPORT PTCLDY    53  46  77 E3        30.07F
KANKAKEE*      CLEAR     52  51  95 SE3       30.07F
WHEELING       CLEAR     49  45  86 CALM      30.10S
MORRIS*        PTCLDY    54  50  86 CALM      30.04F
ROMEOVILLE*    CLEAR     53  48  84 E5        30.07F
NORTHERLY ISL    N/A     53  49  86 CALM        N/A
$$

LMZ740>746-030900-
SOUTHERN LAKE MICHIGAN

STATION/POSITION SKY/WX   TEMP    WIND        PRES    VSBY  WAVE
                          AIR SEA DIR/SP/G                  HT/PER
                          (F)     (DEG/KT/KT) (MB)    (MI)  (FT/S)
SOUTHERN BUOY              47 38  140/  8/ 10 1019.6F         0
HARRISON CRIB              54     130/  9/ 10   N/A
BURNHAM HARBOR             53      CALM  /  3   N/A
CALUMET HARBOR             56      90/  3/  6   N/A
BURNS HARBOR                      160/  4/  9 1019.6S
MICHIGAN CITY              57     100/  6/  8   N/A
MICHIGAN CITY 6N           56 56  150/  4/  6   N/A           1
ST. JOSEPH                 56 55  150/  6/  8   N/A           1
$$

ILZ025>027-034>036-040-047-049-050-058-095>099-030900-
WEST-CENTRAL ILLINOIS

CITY           SKY/WX    TMP DP  RH WIND       PRES   REMARKS
QUINCY         CLEAR     59  56  89 S6        30.02S
GALESBURG*     PTCLDY    57  52  84 E5        30.02S
MACOMB*        PTCLDY    55  54  95 S5        30.05R
JACKSONVILLE*  PTCLDY    60  57  90 S3        30.04R
PITTSFIELD*    CLEAR     59  56  90 CALM      30.04S
$$

ILZ028>032-037-038-041>044-048-051>054-059>061-030900-
CENTRAL ILLINOIS

CITY           SKY/WX    TMP DP  RH WIND       PRES   REMARKS
PONTIAC        CLEAR     56  55  94 SE5       30.06F
BLOOMINGTON    PTCLDY    57  55  93 SE8       30.06F
DECATUR        CLEAR     55  53  93 CALM      30.05S
PEORIA         PTCLDY    61  54  77 SE6       30.04S
LACON*         MOCLDY    58  53  83 SE8       30.04S
LINCOLN*       PTCLDY    59  55  89 CALM      30.03S
SPRINGFIELD    PTCLDY    58  55  90 CALM      30.04S
TAYLORVILLE    PTCLDY    55  54  94 S3        30.04S FOG
$$

ILZ033-039-045-046-055>057-062-063-030900-
EAST-CENTRAL ILLINOIS

CITY           SKY/WX    TMP DP  RH WIND       PRES   REMARKS
CHAMPAIGN      CLEAR     55  53  93 E7        30.06F
DANVILLE*      CLEAR     54  52  94 CALM      30.05R
RANTOUL*       CLEAR     56  54  92 E6        30.06F
MATTOON        MOCLDY    56  54  93 SE7       30.05S
PARIS*         CLEAR     54  52  94 CALM      30.07S
$$

ILZ079-100>102-030900-
SOUTHWEST ILLINOIS

CITY           SKY/WX    TMP DP  RH WIND       PRES   REMARKS
ALTON          CLEAR     56  56 100 CALM      30.04S
BELLEVILLE     CLEAR     56  56 100 SE1       30.02F
CAHOKIA*       CLEAR     57  54  89 CALM      30.03S
SPARTA*        CLOUDY    60  56  88 CALM      30.05S
$$

ILZ064>066-069>071-074>076-080>082-084>086-088>090-092>094-030900-
SOUTH-CENTRAL ILLINOIS

CITY           SKY/WX    TMP DP  RH WIND       PRES   REMARKS
CARBONDALE     FOG       55  54  96 CALM      30.04R VSB 1/2
CAIRO*         CLOUDY    62  59  89 E3        30.02F
EFFINGHAM*     CLEAR     55  53  92 CALM      30.06S FOG
MARION         FOG       54  54 100 CALM      30.04F VSB 1/2
MT. VERNON     CLEAR     50  46  87 CALM      30.05S
CENTRALIA*     CLEAR     52  50  94 CALM      30.04S FOG
SALEM*         CLEAR     56  54  92 CALM      30.05S FOG
$$

ILZ067-068-072-073-078-083-087-091-030900-
SOUTHEAST ILLINOIS

CITY           SKY/WX    TMP DP  RH WIND       PRES   REMARKS
LAWRENCEVILLE  CLEAR     56  53  90 E7        30.06F
FLORA*         CLEAR     54  53  97 CALM      30.05F FOG
FAIRFIELD*     CLOUDY    55  55  99 CALM      30.04S FOG
HARRISBURG*    CLOUDY    56  56 100 CALM      30.05S FOG
ROBINSON*      PTCLDY    55  53  92 E3        30.07S
CARMI*         CLOUDY    55  52  88 NW3       30.04S FOG
$$

ABBREVIATIONS USED IN REMARKS
   TC - TEMPERATURE IN CELSIUS
  WCI - WIND CHILL INDEX
   HX - HEAT INDEX
  VSB - VISIBILITY
$$



USA.gov is the U.S. government's official web portal to all federal, state and local government web resources and services.